Weather History for Clines Corner, NM

Change the Weather History Date:

Monday, December 31, 2012

  Actual Average (KSAF) Record (KSAF)
Temperature  
Mean Temperature 24 °F -  
Max Temperature 30 °F 49 °F 57 °F (1996)
Min Temperature 17 °F 17 °F 0 °F (2010)
Degree Days  
Heating Degree Days 42    
Moisture  
Dew Point 21 °F    
Average Humidity 83    
Maximum Humidity 93    
Minimum Humidity 51    
Precipitation  
Precipitation 0.08 in - - ()
Sea Level Pressure  
Sea Level Pressure 29.83 in    
Wind  
Wind Speed 14 mph (SW)    
Max Wind Speed 26 mph    
Max Gust Speed 36 mph    
Visibility 6 miles    
Events Fog , Snow    
Averages and records for this station are not official NWS values.
T = Trace of Precipitation, MM = Missing Value Source: NWS Daily Summary

Daily Weather History Graph

Daily Weather History Graph

Search for Another Location

Airport:

Trip Planner

Search our weather history database for the weather conditions in past years. The results will help you decide how hot, cold, wet, or windy it might be!

Date:

Astronomy

Dec. 31, 2012 Rise Set
Actual Time 7:10 AM MST 5:01 PM MST
Civil Twilight 6:42 AM MST 5:29 PM MST
Nautical Twilight 6:10 AM MST 6:01 PM MST
Astronomical Twilight 5:40 AM MST 6:31 PM MST
Moon 8:26 PM MST (12/31) 9:01 AM MST (12/31)
Length of Visible Light 10h 47m
Length of Day
9h 50m
Waning Gibbous, 90% of the Moon is Illuminated
Dec 31
Waning Gibbous
Jan 4
Last Quarter
Jan 11
New
Jan 18
First Quarter
Jan 26
Full

Hourly Weather History & Observations

Time (MST) Temp. Windchill Dew Point Humidity Pressure Visibility Wind Dir Wind Speed Gust Speed Precip Events Conditions
12:05 AM 26.6 °F 16.2 °F 17.6 °F 69% 29.83 in 5.0 mi ESE 11.5 mph - 0.00 in Snow Light Snow
12:14 AM 24.8 °F 16.1 °F 17.6 °F 74% 29.82 in 1.8 mi East 8.1 mph - 0.00 in Snow Light Snow
12:23 AM 24.8 °F 16.1 °F 17.6 °F 74% 29.82 in 3.0 mi East 8.1 mph - 0.01 in Snow Light Snow
12:32 AM 24.8 °F 16.1 °F 17.6 °F 74% 29.83 in 2.0 mi ESE 8.1 mph - 0.01 in Snow Light Snow
12:40 AM 24.8 °F 16.9 °F 19.4 °F 80% 29.82 in 1.2 mi ESE 6.9 mph - 0.01 in Snow Light Snow
12:53 AM 23.0 °F 15.8 °F 19.9 °F 88% 29.83 in 2.0 mi East 5.8 mph - 0.01 in Snow Light Snow
1:03 AM 23.0 °F 15.8 °F 19.4 °F 86% 29.80 in 4.0 mi East 5.8 mph - 0.00 in Snow Light Snow
1:12 AM 23.0 °F 17.0 °F 19.4 °F 86% 29.80 in 8.0 mi East 4.6 mph - 0.00 in   Overcast
1:33 AM 23.0 °F 13.9 °F 19.4 °F 86% 29.79 in 10.0 mi East 8.1 mph - 0.00 in   Overcast
1:53 AM 23.0 °F 18.4 °F 19.9 °F 88% 29.81 in 10.0 mi ESE 3.5 mph - 0.00 in   Overcast
2:28 AM 24.8 °F 19.1 °F 21.2 °F 86% 29.79 in 10.0 mi ESE 4.6 mph - N/A   Overcast
2:53 AM 25.0 °F 18.1 °F 23.0 °F 92% 29.78 in 10.0 mi South 5.8 mph - N/A   Overcast
3:53 AM 28.9 °F 15.1 °F 26.1 °F 89% 29.75 in 8.0 mi SW 23.0 mph 26.5 mph 0.00 in   Overcast
3:56 AM 28.4 °F 15.1 °F 26.6 °F 93% 29.76 in 6.0 mi SW 20.7 mph 26.5 mph 0.00 in Snow Light Snow
4:10 AM 28.4 °F 15.4 °F 26.6 °F 93% 29.76 in 2.5 mi SW 19.6 mph - 0.00 in Snow Light Snow
4:18 AM 28.4 °F 16.2 °F 26.6 °F 93% 29.75 in 1.8 mi SW 17.3 mph - 0.01 in Snow Light Snow
4:28 AM 28.4 °F 16.6 °F 26.6 °F 93% 29.75 in 2.0 mi SW 16.1 mph - 0.01 in Snow Light Snow
4:35 AM 28.4 °F 17.0 °F 26.6 °F 93% 29.75 in 2.5 mi SW 15.0 mph - 0.01 in Snow Light Snow
4:50 AM 28.9 °F 17.3 °F 26.1 °F 89% 29.74 in 1.8 mi SSW 16.1 mph - 0.01 in Snow Light Snow
5:02 AM 28.4 °F 15.8 °F 26.6 °F 93% 29.75 in 2.0 mi SW 18.4 mph - 0.00 in Snow Light Snow
5:14 AM 28.4 °F 16.2 °F 26.6 °F 93% 29.75 in 1.2 mi SW 17.3 mph - 0.00 in Snow Light Snow
5:17 AM 28.4 °F 16.2 °F 26.6 °F 93% 29.74 in 0.8 mi SW 17.3 mph - 0.00 in Snow Light Snow
5:40 AM 28.4 °F 15.4 °F 26.6 °F 93% 29.75 in 1.0 mi SW 19.6 mph - 0.02 in Snow Light Snow
5:48 AM 28.4 °F 15.8 °F 26.6 °F 93% 29.75 in 0.5 mi SW 18.4 mph - 0.03 in Fog , Snow Snow
5:53 AM 28.9 °F 16.5 °F 26.1 °F 89% 29.76 in 0.8 mi SW 18.4 mph - 0.03 in Snow Light Snow
6:02 AM 28.4 °F 14.7 °F 26.6 °F 93% 29.76 in 0.5 mi SW 21.9 mph 29.9 mph 0.01 in Fog , Snow Light Snow
6:09 AM 28.4 °F 14.7 °F 26.6 °F 93% 29.76 in 2.0 mi SW 21.9 mph 29.9 mph 0.01 in Snow Light Snow
6:16 AM 28.4 °F 14.1 °F 26.6 °F 93% 29.76 in 1.8 mi SW 24.2 mph 29.9 mph 0.01 in Snow Light Snow
6:36 AM 28.4 °F 14.1 °F 26.6 °F 93% 29.76 in 1.5 mi SW 24.2 mph 31.1 mph 0.01 in Snow Light Snow
6:51 AM 28.4 °F 14.4 °F 24.8 °F 86% 29.77 in 0.8 mi SW 23.0 mph - 0.02 in Snow Light Snow
6:53 AM 28.0 °F 13.6 °F 25.0 °F 88% 29.78 in 0.8 mi SW 24.2 mph - 0.02 in Snow Light Snow
7:24 AM 26.6 °F 11.7 °F 24.8 °F 93% 29.78 in 2.0 mi SW 24.2 mph 34.5 mph 0.01 in Snow Light Snow
7:39 AM 26.6 °F 11.1 °F 24.8 °F 93% 29.79 in 4.0 mi SW 26.5 mph 33.4 mph 0.01 in   Overcast
7:53 AM 26.1 °F 10.4 °F 24.1 °F 92% 29.82 in 1.8 mi SW 26.5 mph 35.7 mph 0.01 in Snow Light Snow
8:16 AM 26.6 °F 11.1 °F 24.8 °F 93% 29.81 in 3.0 mi SW 26.5 mph 33.4 mph 0.00 in Snow Light Snow
8:53 AM 28.0 °F 14.3 °F 24.1 °F 85% 29.86 in 10.0 mi WSW 21.9 mph - 0.00 in   Overcast
9:01 AM 28.4 °F 15.1 °F 23.0 °F 80% 29.84 in 10.0 mi WSW 20.7 mph - N/A   Overcast
9:53 AM 28.9 °F 15.8 °F 21.9 °F 75% 29.88 in 10.0 mi West 20.7 mph - N/A   Clear
10:53 AM 30.0 °F 16.9 °F 18.0 °F 61% 29.90 in 10.0 mi West 21.9 mph - N/A   Clear
11:53 AM 30.0 °F 16.9 °F 16.0 °F 56% 29.87 in 10.0 mi WSW 21.9 mph - N/A   Clear
12:53 PM 30.0 °F 16.9 °F 16.0 °F 56% 29.88 in 10.0 mi WNW 21.9 mph 26.5 mph N/A   Mostly Cloudy
1:53 PM 28.0 °F 14.6 °F 15.1 °F 58% 29.88 in 10.0 mi West 20.7 mph - N/A   Scattered Clouds
2:53 PM 30.0 °F 18.3 °F 14.0 °F 51% 29.88 in 10.0 mi West 17.3 mph - N/A   Mostly Cloudy
3:53 PM 30.0 °F 18.3 °F 17.1 °F 59% 29.88 in 10.0 mi WNW 17.3 mph - N/A   Overcast
4:53 PM 28.0 °F 14.3 °F 14.0 °F 56% 29.90 in 10.0 mi West 21.9 mph - N/A   Overcast
5:53 PM 23.0 °F 11.1 °F 10.9 °F 60% 29.96 in 10.0 mi WNW 12.7 mph - N/A   Clear
6:53 PM 21.9 °F 7.8 °F 16.0 °F 78% 29.97 in 10.0 mi WNW 17.3 mph - N/A   Partly Cloudy
7:53 PM 19.0 °F 3.2 °F 15.1 °F 85% 29.99 in 10.0 mi WNW 19.6 mph - N/A   Clear
8:53 PM 19.0 °F 4.0 °F 15.1 °F 85% 29.99 in 10.0 mi WNW 17.3 mph - N/A   Clear
9:53 PM 17.1 °F 2.5 °F 14.0 °F 88% 30.02 in 10.0 mi WNW 15.0 mph - N/A   Clear
10:53 PM 19.0 °F 2.7 °F 15.1 °F 85% 30.01 in 10.0 mi WNW 20.7 mph - N/A   Clear
11:53 PM 19.0 °F 2.7 °F 15.1 °F 85% 30.01 in 10.0 mi WNW 20.7 mph - N/A   Clear